| time (UTC) | temp F | wind direction | speed MPH | gust MPH | rain 1hr in | rain 24hr in | rain mn in | humidity % | barometer mb |
| 20260510200505 | 69 | 39 | 3.0 | 9.0 | 0.01 | 0.46 | 0.46 | 86 | 1018.2 |
| 20260510200005 | 69 | 70 | 6.0 | 13.0 | 0.01 | 0.46 | 0.46 | 85 | 1018.2 |
| 20260510195005 | 69 | 352 | 3.0 | 8.0 | 0.01 | 0.46 | 0.46 | 81 | 1018.3 |
| 20260510194505 | 69 | 39 | 5.0 | 13.0 | 0.00 | 0.45 | 0.45 | 79 | 1018.5 |
| 20260510194005 | 70 | 23 | 2.0 | 12.0 | 0.00 | 0.45 | 0.45 | 79 | 1018.4 |
| 20260510193505 | 70 | 30 | 4.0 | 10.0 | 0.00 | 0.45 | 0.45 | 78 | 1018.0 |
| 20260510193006 | 70 | 71 | 6.0 | 13.0 | 0.00 | 0.45 | 0.45 | 77 | 1017.7 |
| 20260510192505 | 70 | 99 | 3.0 | 10.0 | 0.00 | 0.45 | 0.45 | 77 | 1017.6 |
| 20260510192005 | 71 | 102 | 6.0 | 12.0 | 0.00 | 0.45 | 0.45 | 76 | 1017.6 |
| 20260510191505 | 71 | 121 | 5.0 | 12.0 | 0.00 | 0.45 | 0.45 | 77 | 1017.5 |
| 20260510191005 | 71 | 111 | 6.0 | 14.0 | 0.00 | 0.45 | 0.45 | 76 | 1017.7 |
| 20260510190506 | 71 | 117 | 5.0 | 13.0 | 0.00 | 0.45 | 0.45 | 78 | 1017.7 |
| 20260510190005 | 71 | 121 | 9.0 | 18.0 | 0.00 | 0.45 | 0.45 | 77 | 1017.7 |
| 20260510185005 | 70 | 115 | 9.0 | 14.0 | 0.00 | 0.45 | 0.45 | 79 | 1017.7 |
| 20260510184505 | 70 | 104 | 11.0 | 15.0 | 0.00 | 0.45 | 0.45 | 80 | 1017.7 |
| 20260510184005 | 70 | 103 | 7.0 | 13.0 | 0.00 | 0.45 | 0.45 | 81 | 1017.7 |
| 20260510183505 | 70 | 96 | 9.0 | 15.0 | 0.00 | 0.45 | 0.45 | 82 | 1017.7 |
| 20260510183006 | 69 | 94 | 7.0 | 15.0 | 0.00 | 0.45 | 0.45 | 83 | 1017.5 |
| 20260510181505 | 68 | 92 | 5.0 | 14.0 | 0.01 | 0.45 | 0.45 | 90 | 1017.2 |
| 20260510181005 | 66 | 103 | 4.0 | 12.0 | 0.02 | 0.45 | 0.45 | 90 | 1017.3 |
| 20260510180005 | 65 | 98 | 5.0 | 10.0 | 0.06 | 0.45 | 0.45 | 90 | 1017.0 |
| 20260510175505 | 65 | 90 | 5.0 | 12.0 | 0.15 | 0.45 | 0.45 | 90 | 1017.0 |
| 20260510175005 | 65 | 89 | 5.0 | 10.0 | 0.20 | 0.45 | 0.45 | 91 | 1016.9 |
| 20260510174006 | 64 | 87 | 3.0 | 13.0 | 0.24 | 0.45 | 0.45 | 91 | 1016.7 |
| 20260510173505 | 64 | 86 | 6.0 | 14.0 | 0.24 | 0.45 | 0.45 | 91 | 1017.0 |
| 20260510173005 | 63 | 85 | 6.0 | 13.0 | 0.24 | 0.45 | 0.45 | 91 | 1017.1 |
| 20260510172506 | 63 | 99 | 6.0 | 15.0 | 0.24 | 0.45 | 0.45 | 90 | 1017.3 |
| 20260510172005 | 63 | 81 | 7.0 | 18.0 | 0.23 | 0.44 | 0.44 | 90 | 1017.8 |
| 20260510171005 | 64 | 71 | 6.0 | 14.0 | 0.22 | 0.43 | 0.43 | 90 | 1018.4 |
| 20260510170505 | 64 | 20 | 6.0 | 16.0 | 0.21 | 0.41 | 0.41 | 89 | 1018.4 |
| 20260510170004 | 64 | 54 | 5.0 | 16.0 | 0.18 | 0.39 | 0.39 | 88 | 1018.3 |
| 20260510165005 | 66 | 48 | 10.0 | 25.0 | 0.05 | 0.25 | 0.25 | 83 | 1018.0 |
| 20260510163504 | 69 | 3 | 11.0 | 38.0 | 0.00 | 0.21 | 0.21 | 72 | 1017.5 |
| 20260510163004 | 71 | 16 | 12.0 | 30.0 | 0.00 | 0.21 | 0.21 | 69 | 1017.4 |
| 20260510162505 | 74 | 14 | 11.0 | 22.0 | 0.00 | 0.21 | 0.21 | 64 | 1017.7 |
| 20260510162005 | 77 | 345 | 8.0 | 30.0 | 0.00 | 0.21 | 0.21 | 64 | 1016.3 |
| 20260510161504 | 78 | 139 | 3.0 | 7.0 | 0.00 | 0.21 | 0.21 | 62 | 1015.6 |
| 20260510161005 | 79 | 147 | 7.0 | 13.0 | 0.00 | 0.21 | 0.21 | 61 | 1015.2 |
| 20260510160504 | 80 | 173 | 8.0 | 15.0 | 0.00 | 0.21 | 0.21 | 59 | 1014.9 |
| 20260510160004 | 80 | 183 | 9.0 | 13.0 | 0.00 | 0.21 | 0.21 | 60 | 1014.6 |
| 20260510155505 | 80 | 194 | 7.0 | 14.0 | 0.00 | 0.21 | 0.21 | 60 | 1014.4 |
| 20260510155005 | 79 | 161 | 13.0 | 23.0 | 0.00 | 0.21 | 0.21 | 59 | 1014.1 |
| 20260510154505 | 79 | 168 | 5.0 | 13.0 | 0.00 | 0.21 | 0.21 | 60 | 1014.0 |
| 20260510153505 | 78 | 182 | 8.0 | 17.0 | 0.00 | 0.21 | 0.21 | 60 | 1013.9 |
| 20260510153005 | 78 | 162 | 12.0 | 21.0 | 0.01 | 0.21 | 0.21 | 60 | 1013.8 |
| 20260510152005 | 77 | 148 | 11.0 | 17.0 | 0.01 | 0.21 | 0.21 | 62 | 1014.1 |
| 20260510151504 | 77 | 168 | 7.0 | 15.0 | 0.01 | 0.21 | 0.21 | 61 | 1014.1 |
| 20260510151005 | 77 | 184 | 9.0 | 18.0 | 0.01 | 0.21 | 0.21 | 61 | 1014.1 |
| 20260510150505 | 76 | 173 | 8.0 | 15.0 | 0.01 | 0.21 | 0.21 | 63 | 1014.2 |
| 20260510150005 | 75 | 165 | 9.0 | 14.0 | 0.01 | 0.21 | 0.21 | 66 | 1014.1 |
| 20260510145505 | 75 | 192 | 7.0 | 16.0 | 0.01 | 0.21 | 0.21 | 67 | 1014.0 |
| 20260510145004 | 74 | 199 | 6.0 | 12.0 | 0.01 | 0.21 | 0.21 | 69 | 1014.1 |
| 20260510144504 | 73 | 175 | 9.0 | 16.0 | 0.01 | 0.21 | 0.21 | 70 | 1014.1 |
| 20260510144005 | 72 | 175 | 9.0 | 16.0 | 0.01 | 0.21 | 0.21 | 72 | 1013.9 |
| 20260510143505 | 72 | 178 | 9.0 | 20.0 | 0.01 | 0.21 | 0.21 | 71 | 1014.1 |
| 20260510143004 | 72 | 172 | 6.0 | 15.0 | 0.00 | 0.20 | 0.20 | 74 | 1014.2 |
| 20260510142504 | 72 | 184 | 7.0 | 15.0 | 0.00 | 0.20 | 0.20 | 75 | 1014.4 |
| 20260510141504 | 71 | 183 | 6.0 | 16.0 | 0.00 | 0.20 | 0.20 | 78 | 1014.6 |
| 20260510141004 | 70 | 156 | 9.0 | 15.0 | 0.00 | 0.20 | 0.20 | 78 | 1014.4 |
| 20260510140504 | 70 | 162 | 7.0 | 12.0 | 0.00 | 0.20 | 0.20 | 80 | 1014.7 |
| 20260510135005 | 68 | 189 | 6.0 | 13.0 | 0.00 | 0.20 | 0.20 | 86 | 1015.6 |
| 20260510134505 | 67 | 155 | 6.0 | 12.0 | 0.00 | 0.20 | 0.20 | 87 | 1015.6 |
| 20260510134005 | 67 | 157 | 3.0 | 7.0 | 0.00 | 0.20 | 0.20 | 87 | 1015.7 |
| 20260510133504 | 66 | 126 | 2.0 | 9.0 | 0.00 | 0.20 | 0.20 | 88 | 1015.7 |
| 20260510133004 | 66 | 154 | 4.0 | 9.0 | 0.00 | 0.20 | 0.20 | 88 | 1015.7 |
| 20260510132504 | 66 | 133 | 3.0 | 9.0 | 0.00 | 0.20 | 0.20 | 88 | 1015.5 |
| 20260510132005 | 66 | 141 | 3.0 | 8.0 | 0.00 | 0.20 | 0.20 | 89 | 1015.3 |
| 20260510131504 | 66 | 151 | 5.0 | 10.0 | 0.00 | 0.20 | 0.20 | 89 | 1015.2 |
| 20260510131004 | 66 | 154 | 5.0 | 10.0 | 0.00 | 0.20 | 0.20 | 90 | 1015.3 |
| 20260510130504 | 66 | 117 | 4.0 | 10.0 | 0.00 | 0.20 | 0.20 | 90 | 1015.3 |
| 20260510130005 | 66 | 150 | 4.0 | 10.0 | 0.00 | 0.20 | 0.20 | 90 | 1015.3 |
| 20260510125505 | 66 | 109 | 6.0 | 9.0 | 0.00 | 0.20 | 0.20 | 90 | 1015.0 |
| 20260510124504 | 65 | 124 | 3.0 | 8.0 | 0.00 | 0.20 | 0.20 | 91 | 1014.9 |
| 20260510124004 | 65 | 134 | 6.0 | 10.0 | 0.00 | 0.20 | 0.20 | 91 | 1014.8 |
| 20260510123504 | 65 | 139 | 5.0 | 10.0 | 0.00 | 0.20 | 0.20 | 91 | 1014.9 |
| 20260510121504 | 64 | 150 | 3.0 | 9.0 | 0.00 | 0.20 | 0.20 | 92 | 1014.6 |
| 20260510121004 | 64 | 122 | 5.0 | 10.0 | 0.00 | 0.20 | 0.20 | 92 | 1014.5 |
| 20260510120504 | 64 | 135 | 3.0 | 9.0 | 0.00 | 0.20 | 0.20 | 92 | 1014.4 |
| 20260510115504 | 64 | 120 | 5.0 | 9.0 | 0.00 | 0.20 | 0.20 | 92 | 1014.4 |
| 20260510115004 | 64 | 125 | 3.0 | 9.0 | 0.00 | 0.20 | 0.20 | 92 | 1014.3 |
| 20260510114504 | 64 | 126 | 4.0 | 8.0 | 0.00 | 0.20 | 0.20 | 92 | 1014.2 |
| 20260510114004 | 64 | 140 | 3.0 | 8.0 | 0.00 | 0.20 | 0.20 | 92 | 1014.3 |
| 20260510113504 | 64 | 132 | 2.0 | 7.0 | 0.00 | 0.20 | 0.20 | 92 | 1014.2 |
| 20260510113004 | 64 | 109 | 5.0 | 9.0 | 0.00 | 0.20 | 0.20 | 91 | 1014.2 |
| 20260510112505 | 64 | 122 | 3.0 | 7.0 | 0.00 | 0.20 | 0.20 | 91 | 1014.2 |
| 20260510112004 | 64 | 131 | 3.0 | 8.0 | 0.00 | 0.20 | 0.20 | 91 | 1014.2 |
| 20260510111504 | 64 | 133 | 3.0 | 8.0 | 0.00 | 0.20 | 0.20 | 91 | 1014.2 |
| 20260510111004 | 64 | 103 | 2.0 | 8.0 | 0.00 | 0.20 | 0.20 | 91 | 1014.2 |
| 20260510110503 | 64 | 151 | 4.0 | 8.0 | 0.00 | 0.20 | 0.20 | 91 | 1013.9 |
| 20260510110004 | 64 | 118 | 4.0 | 9.0 | 0.00 | 0.20 | 0.20 | 91 | 1014.0 |
| 20260510105504 | 64 | 104 | 3.0 | 8.0 | 0.00 | 0.20 | 0.20 | 91 | 1014.0 |
| 20260510105004 | 64 | 104 | 4.0 | 9.0 | 0.00 | 0.20 | 0.20 | 91 | 1014.0 |
| 20260510104504 | 64 | 106 | 4.0 | 10.0 | 0.00 | 0.20 | 0.20 | 91 | 1014.0 |
| 20260510103504 | 64 | 130 | 5.0 | 13.0 | 0.01 | 0.20 | 0.20 | 90 | 1013.8 |
| 20260510103004 | 64 | 119 | 6.0 | 10.0 | 0.03 | 0.20 | 0.20 | 90 | 1013.8 |
| 20260510102504 | 64 | 114 | 5.0 | 9.0 | 0.03 | 0.20 | 0.20 | 90 | 1013.8 |
| 20260510102004 | 64 | 114 | 3.0 | 9.0 | 0.07 | 0.20 | 0.20 | 90 | 1013.8 |
| 20260510101504 | 64 | 119 | 6.0 | 10.0 | 0.17 | 0.20 | 0.20 | 90 | 1013.8 |
| 20260510101004 | 64 | 123 | 6.0 | 13.0 | 0.20 | 0.20 | 0.20 | 89 | 1013.9 |
| 20260510100503 | 64 | 102 | 6.0 | 13.0 | 0.20 | 0.20 | 0.20 | 89 | 1014.1 |
| 20260510095504 | 65 | 90 | 7.0 | 13.0 | 0.20 | 0.20 | 0.20 | 89 | 1014.0 |
| 20260510095004 | 65 | 90 | 6.0 | 16.0 | 0.20 | 0.20 | 0.20 | 88 | 1014.0 |
| 20260510094504 | 65 | 97 | 10.0 | 17.0 | 0.20 | 0.20 | 0.20 | 88 | 1014.1 |
| 20260510094004 | 65 | 93 | 6.0 | 15.0 | 0.20 | 0.20 | 0.20 | 88 | 1013.5 |
| 20260510093504 | 65 | 93 | 7.0 | 16.0 | 0.18 | 0.18 | 0.18 | 86 | 1013.4 |
| 20260510093004 | 65 | 100 | 14.0 | 25.0 | 0.16 | 0.16 | 0.16 | 85 | 1013.6 |
| 20260510092004 | 67 | 77 | 8.0 | 18.0 | 0.13 | 0.13 | 0.13 | 82 | 1014.3 |
| 20260510091504 | 69 | 23 | 11.0 | 17.0 | 0.02 | 0.02 | 0.02 | 79 | 1014.6 |
| 20260510091004 | 70 | 29 | 13.0 | 23.0 | 0.00 | 0.00 | 0.00 | 75 | 1014.4 |
| 20260510090003 | 71 | 26 | 13.0 | 24.0 | 0.00 | 0.00 | 0.00 | 76 | 1013.9 |
| 20260510085504 | 72 | 36 | 7.0 | 17.0 | 0.00 | 0.00 | 0.00 | 83 | 1013.4 |
| 20260510085003 | 73 | 45 | 5.0 | 13.0 | 0.00 | 0.00 | 0.00 | 86 | 1013.2 |
| 20260510084004 | 74 | 84 | 0.0 | 2.0 | 0.00 | 0.00 | 0.00 | 88 | 1012.9 |
| 20260510083503 | 74 | 84 | 1.0 | 3.0 | 0.00 | 0.00 | 0.00 | 88 | 1012.8 |
| 20260510083004 | 74 | 84 | 2.0 | 8.0 | 0.00 | 0.00 | 0.00 | 88 | 1012.5 |
| 20260510081504 | 74 | 99 | 4.0 | 9.0 | 0.00 | 0.00 | 0.00 | 87 | 1012.9 |
| 20260510081004 | 74 | 41 | 3.0 | 9.0 | 0.00 | 0.00 | 0.00 | 87 | 1012.8 |
| 20260510080504 | 74 | 50 | 3.0 | 8.0 | 0.00 | 0.00 | 0.00 | 87 | 1012.6 |
| 20260510075503 | 74 | 117 | 1.0 | 7.0 | 0.00 | 0.00 | 0.00 | 86 | 1012.0 |
| 20260510075004 | 74 | 81 | 3.0 | 9.0 | 0.00 | 0.00 | 0.00 | 86 | 1011.7 |
| 20260510074504 | 74 | 84 | 2.0 | 7.0 | 0.00 | 0.00 | 0.00 | 86 | 1011.7 |
| 20260510073506 | 74 | 117 | 2.0 | 5.0 | 0.00 | 0.00 | 0.00 | 85 | 1011.6 |
| 20260510073006 | 74 | 90 | 1.0 | 5.0 | 0.00 | 0.00 | 0.00 | 85 | 1011.3 |
| 20260510071506 | 74 | 152 | 2.0 | 13.0 | 0.00 | 0.00 | 0.00 | 84 | 1010.5 |
| 20260510071006 | 74 | 120 | 6.0 | 13.0 | 0.00 | 0.00 | 0.00 | 84 | 1010.6 |
| 20260510070506 | 74 | 125 | 5.0 | 12.0 | 0.00 | 0.00 | 0.00 | 84 | 1010.7 |
| 20260510070006 | 75 | 145 | 6.0 | 13.0 | 0.00 | 0.00 | 0.00 | 83 | 1010.8 |
| 20260510065006 | 75 | 146 | 6.0 | 10.0 | 0.00 | 0.00 | 0.00 | 82 | 1011.7 |
| 20260510064506 | 75 | 131 | 8.0 | 13.0 | 0.00 | 0.00 | 0.00 | 82 | 1012.2 |
| 20260510064006 | 75 | 52 | 3.0 | 9.0 | 0.00 | 0.00 | 0.00 | 82 | 1012.6 |
| 20260510063506 | 75 | 30 | 4.0 | 13.0 | 0.00 | 0.00 | 0.00 | 81 | 1012.8 |
| 20260510063006 | 75 | 20 | 7.0 | 14.0 | 0.00 | 0.00 | 0.00 | 81 | 1012.9 |
| 20260510062506 | 76 | 4 | 7.0 | 17.0 | 0.00 | 0.00 | 0.00 | 81 | 1013.0 |
| 20260510061506 | 75 | 5 | 3.0 | 7.0 | 0.00 | 0.00 | 0.00 | 81 | 1012.6 |
| 20260510061006 | 75 | 34 | 2.0 | 10.0 | 0.00 | 0.00 | 0.00 | 81 | 1012.7 |
| 20260510060506 | 76 | 29 | 5.0 | 13.0 | 0.00 | 0.00 | 0.00 | 81 | 1012.4 |
| 20260510060006 | 75 | 17 | 3.0 | 9.0 | 0.00 | 0.00 | 0.00 | 81 | 1011.8 |
| 20260510054506 | 76 | 136 | 3.0 | 7.0 | 0.00 | 0.00 | 0.00 | 79 | 1010.2 |
| 20260510054006 | 76 | 104 | 3.0 | 7.0 | 0.00 | 0.00 | 0.00 | 79 | 1010.1 |
| 20260510053506 | 76 | 142 | 3.0 | 9.0 | 0.00 | 0.00 | 0.00 | 78 | 1010.1 |
| 20260510053006 | 76 | 140 | 2.0 | 8.0 | 0.00 | 0.00 | 0.00 | 77 | 1010.1 |
| 20260510052506 | 76 | 144 | 4.0 | 10.0 | 0.00 | 0.00 | 0.00 | 77 | 1009.9 |
| 20260510052005 | 76 | 139 | 7.0 | 14.0 | 0.00 | 0.00 | 0.00 | 77 | 1009.9 |
| 20260510051506 | 76 | 171 | 6.0 | 14.0 | 0.00 | 0.00 | 0.00 | 76 | 1009.6 |
| 20260510051006 | 76 | 149 | 6.0 | 9.0 | 0.00 | 0.00 | 0.00 | 75 | 1009.8 |
| 20260510045006 | 77 | 122 | 5.0 | 8.0 | 0.00 | 0.00 | 0.00 | 69 | 1009.7 |
| 20260510044505 | 77 | 146 | 4.0 | 12.0 | 0.00 | 0.00 | 0.00 | 68 | 1009.5 |
| 20260510044005 | 77 | 158 | 6.0 | 13.0 | 0.00 | 0.00 | 0.00 | 68 | 1009.3 |
| 20260510043506 | 77 | 168 | 4.0 | 8.0 | 0.00 | 0.00 | 0.00 | 68 | 1009.3 |
| 20260510043005 | 77 | 137 | 4.0 | 9.0 | 0.00 | 0.00 | 0.00 | 68 | 1009.4 |
| 20260510042506 | 77 | 158 | 5.0 | 8.0 | 0.00 | 0.00 | 0.00 | 68 | 1009.4 |
| 20260510042006 | 77 | 143 | 5.0 | 10.0 | 0.00 | 0.00 | 0.00 | 69 | 1009.5 |
| 20260510040506 | 77 | 159 | 4.0 | 9.0 | 0.00 | 0.00 | 0.00 | 69 | 1009.7 |
| 20260510040006 | 76 | 141 | 3.0 | 9.0 | 0.00 | 0.00 | 0.00 | 69 | 1009.7 |
| 20260510035505 | 76 | 138 | 3.0 | 7.0 | 0.00 | 0.00 | 0.00 | 69 | 1009.8 |
| 20260510035005 | 77 | 130 | 2.0 | 7.0 | 0.00 | 0.00 | 0.00 | 69 | 1009.7 |
| 20260510034505 | 76 | 136 | 2.0 | 8.0 | 0.00 | 0.00 | 0.00 | 69 | 1009.8 |
| 20260510034005 | 76 | 139 | 5.0 | 9.0 | 0.00 | 0.00 | 0.00 | 69 | 1009.8 |
| 20260510033505 | 76 | 135 | 2.0 | 6.0 | 0.00 | 0.00 | 0.00 | 69 | 1009.8 |
| 20260510033005 | 77 | 137 | 2.0 | 6.0 | 0.00 | 0.00 | 0.00 | 69 | 1009.9 |
| 20260510032505 | 76 | 115 | 1.0 | 5.0 | 0.00 | 0.00 | 0.00 | 69 | 1009.8 |
| 20260510032006 | 76 | 126 | 3.0 | 7.0 | 0.00 | 0.00 | 0.00 | 69 | 1009.8 |
| 20260510031505 | 77 | 128 | 3.0 | 7.0 | 0.00 | 0.00 | 0.00 | 69 | 1009.9 |
| 20260510031006 | 77 | 150 | 2.0 | 6.0 | 0.00 | 0.00 | 0.00 | 69 | 1009.8 |
| 20260510030006 | 77 | 130 | 2.0 | 6.0 | 0.00 | 0.00 | 0.00 | 68 | 1009.7 |
| 20260510025505 | 77 | 139 | 4.0 | 8.0 | 0.00 | 0.00 | 0.00 | 68 | 1009.8 |
| 20260510025005 | 78 | 119 | 3.0 | 8.0 | 0.00 | 0.00 | 0.00 | 68 | 1009.8 |
| 20260510024005 | 78 | 106 | 3.0 | 7.0 | 0.00 | 0.00 | 0.00 | 67 | 1009.7 |
| 20260510023505 | 78 | 119 | 4.0 | 8.0 | 0.00 | 0.00 | 0.00 | 66 | 1009.7 |
| 20260510023006 | 78 | 111 | 5.0 | 8.0 | 0.00 | 0.00 | 0.00 | 66 | 1009.7 |
| 20260510022505 | 78 | 101 | 4.0 | 9.0 | 0.00 | 0.00 | 0.00 | 66 | 1009.6 |
| 20260510021505 | 79 | 133 | 3.0 | 8.0 | 0.00 | 0.00 | 0.00 | 65 | 1009.5 |
| 20260510021005 | 79 | 106 | 6.0 | 10.0 | 0.00 | 0.00 | 0.00 | 64 | 1009.4 |
| 20260510020005 | 79 | 114 | 2.0 | 10.0 | 0.00 | 0.00 | 0.00 | 63 | 1009.4 |
| 20260510015505 | 79 | 123 | 4.0 | 8.0 | 0.00 | 0.00 | 0.00 | 63 | 1009.3 |
| 20260510015005 | 79 | 102 | 2.0 | 7.0 | 0.00 | 0.00 | 0.00 | 62 | 1009.3 |
| 20260510014506 | 80 | 113 | 2.0 | 7.0 | 0.00 | 0.00 | 0.00 | 62 | 1009.3 |
| 20260510014005 | 80 | 117 | 5.0 | 8.0 | 0.00 | 0.00 | 0.00 | 61 | 1009.2 |
| 20260510013505 | 80 | 105 | 4.0 | 9.0 | 0.00 | 0.00 | 0.00 | 61 | 1009.1 |
| 20260510013005 | 80 | 109 | 4.0 | 8.0 | 0.00 | 0.00 | 0.00 | 60 | 1009.0 |
| 20260510012505 | 80 | 117 | 2.0 | 8.0 | 0.00 | 0.00 | 0.00 | 60 | 1009.0 |
| 20260510012005 | 81 | 118 | 3.0 | 8.0 | 0.00 | 0.00 | 0.00 | 59 | 1008.8 |
| 20260510011505 | 81 | 113 | 5.0 | 8.0 | 0.00 | 0.00 | 0.00 | 58 | 1008.8 |
| 20260510010505 | 81 | 102 | 4.0 | 9.0 | 0.00 | 0.00 | 0.00 | 56 | 1008.7 |
| 20260510010005 | 82 | 106 | 5.0 | 13.0 | 0.00 | 0.00 | 0.00 | 56 | 1008.6 |
| 20260510005505 | 82 | 116 | 5.0 | 9.0 | 0.00 | 0.00 | 0.00 | 56 | 1008.7 |
| 20260510005005 | 82 | 118 | 6.0 | 9.0 | 0.00 | 0.00 | 0.00 | 55 | 1008.6 |
| 20260510004505 | 82 | 110 | 5.0 | 12.0 | 0.00 | 0.00 | 0.00 | 54 | 1008.6 |
| 20260510004006 | 82 | 109 | 6.0 | 10.0 | 0.00 | 0.00 | 0.00 | 54 | 1008.6 |
| 20260510003505 | 83 | 106 | 4.0 | 10.0 | 0.00 | 0.00 | 0.00 | 53 | 1008.5 |
| 20260510003005 | 83 | 109 | 5.0 | 9.0 | 0.00 | 0.00 | 0.00 | 54 | 1008.6 |
| 20260510002505 | 83 | 105 | 5.0 | 8.0 | 0.00 | 0.00 | 0.00 | 55 | 1008.6 |
| 20260510001005 | 83 | 101 | 5.0 | 8.0 | 0.00 | 0.00 | 0.00 | 54 | 1008.7 |
| 20260510000505 | 83 | 119 | 4.0 | 13.0 | 0.00 | 0.00 | 0.00 | 54 | 1008.7 |
| 20260510000005 | 83 | 123 | 6.0 | 10.0 | 0.00 | 0.00 | 0.00 | 54 | 1008.7 |
| 20260509235505 | 84 | 117 | 6.0 | 9.0 | 0.00 | 0.00 | 0.00 | 54 | 1008.7 |
| 20260509235004 | 84 | 75 | 5.0 | 9.0 | 0.00 | 0.00 | 0.00 | 54 | 1008.7 |
| 20260509234504 | 84 | 123 | 3.0 | 9.0 | 0.00 | 0.00 | 0.00 | 54 | 1008.7 |
| 20260509234004 | 84 | 79 | 6.0 | 12.0 | 0.00 | 0.00 | 0.00 | 54 | 1008.7 |
| 20260509233505 | 84 | 105 | 5.0 | 10.0 | 0.00 | 0.00 | 0.00 | 54 | 1008.7 |
| 20260509233005 | 84 | 86 | 5.0 | 9.0 | 0.00 | 0.00 | 0.00 | 54 | 1008.8 |
| 20260509232505 | 84 | 96 | 4.0 | 9.0 | 0.00 | 0.00 | 0.00 | 54 | 1008.7 |
| 20260509232004 | 84 | 112 | 7.0 | 13.0 | 0.00 | 0.00 | 0.00 | 55 | 1008.7 |
| 20260509231505 | 84 | 99 | 5.0 | 13.0 | 0.00 | 0.00 | 0.00 | 56 | 1008.8 |
| 20260509231004 | 85 | 78 | 5.0 | 12.0 | 0.00 | 0.00 | 0.00 | 57 | 1008.7 |
| 20260509230005 | 85 | 81 | 4.0 | 9.0 | 0.00 | 0.00 | 0.00 | 57 | 1008.7 |
| 20260509225505 | 84 | 120 | 6.0 | 9.0 | 0.00 | 0.00 | 0.00 | 58 | 1008.7 |
| 20260509225005 | 85 | 110 | 5.0 | 8.0 | 0.00 | 0.00 | 0.00 | 57 | 1008.6 |
| 20260509224005 | 85 | 74 | 2.0 | 6.0 | 0.00 | 0.00 | 0.00 | 58 | 1008.6 |
| 20260509223505 | 85 | 111 | 3.0 | 9.0 | 0.00 | 0.00 | 0.00 | 58 | 1008.5 |
| 20260509223005 | 85 | 101 | 3.0 | 10.0 | 0.00 | 0.00 | 0.00 | 58 | 1008.6 |
| 20260509222504 | 85 | 112 | 5.0 | 10.0 | 0.00 | 0.00 | 0.00 | 57 | 1008.6 |
| 20260509222005 | 85 | 119 | 3.0 | 9.0 | 0.00 | 0.00 | 0.00 | 59 | 1008.6 |
| 20260509221505 | 85 | 99 | 3.0 | 12.0 | 0.00 | 0.00 | 0.00 | 58 | 1008.6 |
| 20260509221005 | 86 | 114 | 5.0 | 10.0 | 0.00 | 0.00 | 0.00 | 57 | 1008.7 |
| 20260509220505 | 86 | 93 | 6.0 | 10.0 | 0.00 | 0.00 | 0.00 | 57 | 1008.6 |
| 20260509220005 | 86 | 81 | 5.0 | 9.0 | 0.00 | 0.00 | 0.00 | 58 | 1008.6 |
| 20260509215504 | 86 | 108 | 3.0 | 9.0 | 0.00 | 0.00 | 0.00 | 57 | 1008.7 |
| 20260509215004 | 86 | 109 | 6.0 | 13.0 | 0.00 | 0.00 | 0.00 | 58 | 1008.6 |
| 20260509214505 | 87 | 106 | 7.0 | 13.0 | 0.00 | 0.00 | 0.00 | 56 | 1008.6 |
| 20260509214005 | 87 | 95 | 5.0 | 12.0 | 0.00 | 0.00 | 0.00 | 56 | 1008.7 |
| 20260509213505 | 86 | 88 | 3.0 | 10.0 | 0.00 | 0.00 | 0.00 | 57 | 1008.8 |
| 20260509213005 | 86 | 97 | 5.0 | 10.0 | 0.00 | 0.00 | 0.00 | 57 | 1008.9 |
| 20260509212504 | 87 | 62 | 5.0 | 12.0 | 0.00 | 0.00 | 0.00 | 57 | 1008.9 |
| 20260509212004 | 87 | 63 | 6.0 | 12.0 | 0.00 | 0.00 | 0.00 | 57 | 1009.0 |
| 20260509211504 | 87 | 68 | 7.0 | 13.0 | 0.00 | 0.00 | 0.00 | 57 | 1009.0 |
| 20260509211005 | 87 | 52 | 4.0 | 13.0 | 0.00 | 0.00 | 0.00 | 57 | 1009.0 |
| 20260509210005 | 87 | 76 | 7.0 | 12.0 | 0.00 | 0.00 | 0.00 | 58 | 1009.2 |
| 20260509205504 | 87 | 79 | 7.0 | 12.0 | 0.00 | 0.00 | 0.00 | 56 | 1009.3 |
| 20260509205005 | 87 | 98 | 7.0 | 10.0 | 0.00 | 0.00 | 0.00 | 55 | 1009.3 |
| 20260509204004 | 87 | 128 | 5.0 | 13.0 | 0.00 | 0.00 | 0.00 | 57 | 1009.4 |
| 20260509203505 | 88 | 147 | 5.0 | 8.0 | 0.00 | 0.00 | 0.00 | 53 | 1009.4 |
| 20260509203005 | 87 | 1 | 3.0 | 12.0 | 0.00 | 0.00 | 0.00 | 52 | 1009.5 |
| 20260509202504 | 88 | 69 | 4.0 | 13.0 | 0.00 | 0.00 | 0.00 | 52 | 1009.5 |
| 20260509201504 | 88 | 357 | 3.0 | 8.0 | 0.00 | 0.00 | 0.00 | 48 | 1009.7 |